Flag for China Weather past 2 weeks in Nanning, Guangxi, China

Now
81 °F

Clear.


Feels Like: 85 °F
Forecast: 75 / 93 °F
Wind: 3 mph from Northeast

Location: Nanning Airport

Current Time: Oct 3, 2014 at 1:57:41 AM

Latest Report: Oct 3, 2014 at 1:00 AM


Visibility: 4 mi

Pressure: 29.83 "Hg

Humidity: 79%

Dew point: 73 °F

Location of NanningLocation

Historic Weather in Nanning — Graph

°F

Nanning temperature yesterday

Maximum temperature yesterday: 93 °F (at 5:00 PM)
Minimum temperature yesterday: 77 °F (at 4:00 AM)
Average temperature yesterday: 83 °F

Past Weeks' High & Low Weather Summary

 TemperatureHumidityPressure
High95 °F (Sep 30, 4:00 PM)100% (Sep 18, 3:00 AM)29.98 "Hg (Sep 18, 3:00 AM)
Low68 °F (Sep 22, 6:00 AM)38% (Sep 22, 2:00 PM)29.68 "Hg (Sep 19, 6:00 PM)
Average81 °F78%29.85 "Hg
* Reported Midnight between Sep 17 and Sep 18 — Midnight between Oct 2 and Oct 3, Nanning, Weather by CustomWeather, © 2014

Note: Actual official high and low records may vary slightly from our data, if they occured in-between our weather recording intervals... More about our weather records

Advertising

Nanning weather history for previous 24 hours

 ConditionsComfort  
Time TempWeatherWind HumidityBarometerVisibility
12:00 AM
Oct 3
81 °FClear.3 mph79%29.83 "Hg4 mi
11:00 PM
Oct 2
82 °FClear.3 mph74%29.83 "Hg4 mi
10:00 PM84 °FClear.3 mph70%29.83 "Hg5 mi
9:00 PM82 °FClear.3 mph74%29.83 "Hg5 mi
8:00 PM84 °FPassing clouds.8 mph74%29.80 "Hg4 mi
7:00 PM86 °FClear.1 mph66%29.80 "Hg10 mi
6:00 PM90 °FPassing clouds.1 mph55%29.80 "HgN/A
5:00 PM93 °FPassing clouds.3 mph53%29.80 "HgN/A
4:00 PM91 °FPassing clouds.3 mph49%29.80 "HgN/A
3:00 PM91 °FScattered clouds.6 mph56%29.80 "Hg5 mi
2:00 PM90 °FScattered clouds.3 mph59%29.83 "Hg4 mi
1:00 PM88 °FPartly sunny.6 mph66%29.86 "Hg4 mi
12:00 PM86 °FScattered clouds.3 mph75%29.92 "Hg3 mi
11:00 AM82 °FFog.3 mph79%29.95 "Hg2 mi
10:00 AM82 °FFog.3 mph84%29.95 "Hg2 mi
9:00 AM79 °FFog.3 mph89%29.95 "Hg2 mi
8:00 AM79 °FFog.3 mph89%29.92 "Hg2 mi
7:00 AM77 °FFog.3 mph94%29.92 "Hg2 mi
6:00 AM77 °FFog.1 mph94%29.89 "Hg2 mi
5:00 AM77 °FFog.3 mph94%29.89 "Hg2 mi
4:00 AM77 °FFog.1 mph94%29.89 "Hg3 mi
3:00 AM79 °FFog.3 mph89%29.89 "Hg2 mi
2:00 AM79 °FFog.1 mph89%29.89 "Hg2 mi
1:00 AM79 °FFog.1 mph89%29.89 "Hg2 mi
Weather by CustomWeather, © 2014

See weather overviewHow to use our weather pages